Regional Weather Roundup
Issued by NWS

Home | Current Version | Previous Version | Text Only | Print | Product List | Glossary On
Versions: 1 2 3 4 5 6 7 8 9 10 11 12 13 14 15 16 17 18 19 20 21 22 23 24 25 26 27 28 29 30 31 32 33 34 35 36 37 38 39 40 41 42 43 44 45 46 47 48 49 50
000
ASUS43 KDTX 260701
RWRMI
MICHIGAN HOURLY REGIONAL WEATHER ROUNDUP
NATIONAL WEATHER SERVICE DETROIT/PONTIAC MI
300 AM EDT SUN APR 26 2015

NOTE: "FAIR" INDICATES FEW OR NO CLOUDS BELOW 12,000 FEET WITH NO
SIGNIFICANT WEATHER AND/OR OBSTRUCTION TO VISIBILITY.

MIZ047>049-052>055-059>063-066>070-074>076-081>083-260800-
SOUTHEAST LOWER MICHIGAN

CITY           SKY/WX    TMP DP  RH WIND       PRES   REMARKS
ADRIAN         CLEAR     37  27  67 NE10      29.83S WCI  30
ALMA           CLEAR     34  26  71 N5        29.89S WCI  30
ANN ARBOR      CLEAR     37  25  61 N7        29.83F WCI  32
BAD AXE        CLEAR     33  25  74 N5        29.87S WCI  28
CARO           CLEAR     32  27  80 CALM      29.86F
DETROIT CITY   CLEAR     37  26  64 N10       29.84S WCI  30
DETROIT        PTCLDY    40  26  57 N9        29.84F WCI  34
FLINT          CLEAR     36  23  59 NE7       29.87S WCI  30
GROSSE ILE     CLEAR     39  27  60 N9        29.81S WCI  33
HILLSDALE      CLEAR     38  26  60 NE6       29.82S WCI  34
HOWELL         CLEAR     35  24  64 CALM      29.85S

CITY           SKY/WX    TMP DP  RH WIND       PRES   REMARKS
JACKSON        CLEAR     37  25  61 N5        29.84S WCI  33
LAMBERTVILLE   CLEAR     39  27  60 N9        29.82S WCI  33
LANSING        CLEAR     34  25  69 N5        29.88S WCI  30
LAPEER         FAIR      32  24  71 CALM      29.86S
MASON          CLEAR     34  24  68 CALM      29.86S
MONROE         CLEAR     37  27  65 N5        29.81S WCI  34
PONTIAC        CLEAR     35  24  64 NE6       29.84R WCI  30
PORT HOPE        N/A     39  31  72 N9        29.85F WCI  33
PORT HURON     CLEAR     36  28  75 N5        29.85S WCI  32
TRI CITIES     CLEAR     35  25  66 N5        29.89S WCI  31
MIDLAND        FAIR      31  25  77 CALM      29.88F
TROY           CLEAR     38  26  64 N9        29.86S WCI  31
SAGINAW HB     CLEAR     34  30  86 CALM      29.87S
$$
MIZ043>046-050>051-056>058-064>065-071>073-077>080-260800-
SOUTHWEST LOWER MICHIGAN

CITY           SKY/WX    TMP DP  RH WIND       PRES   REMARKS
BATTLE CREEK   CLEAR     37  26  64 NE7       29.86S WCI  32
BENTON HARBOR  CLEAR     37  28  70 NE3       29.87R
BIG RAPIDS     CLEAR     33  24  68 CALM      29.90S
COLDWATER      CLEAR     37  26  65 N3        29.84S
FREMONT        FAIR      37  21  51 CALM      29.90S
HOLLAND        CLEAR     41  25  53 NE5       29.90R
GRAND RAPIDS   CLEAR     36  24  62 NE6       29.89R WCI  31
IONIA          FAIR      34  25  69 NE5       29.87S WCI  30
KALAMAZOO      CLEAR     37  26  64 N5        29.87R WCI  33
LUDINGTON      CLEAR     38  24  57 N5        29.93R WCI  34
MARSHALL       CLEAR     36  27  69 N3        29.85S
MOUNT PLEASANT CLEAR     33  27  79 NW3       29.89S
MUSKEGON       CLEAR     39  24  55 NE7       29.91R WCI  34
SOUTH HAVEN    CLEAR     40  26  58 E6        29.88R
$$
MIZ016>042-260800-
NORTHERN LOWER MICHIGAN

CITY           SKY/WX    TMP DP  RH WIND       PRES   REMARKS
BEAVER ISLAND  CLEAR     33  25  72 N5        29.96F WCI  29
BELLAIRE       CLEAR     31  25  79 N5        29.94F WCI  26
CADILLAC       CLEAR     33  22  66 N5        29.89F WCI  28
CHARLEVOIX     CLEAR     34  28  79 N8        29.98F WCI  27
FRANKFORT      CLEAR     41  20  43 N8        29.95S
GAYLORD        CLEAR     35  22  58 CALM      29.91S
GRAYLING       CLEAR     24  20  83 CALM      29.91S
HARBOR SPRINGS CLEAR     34  22  61 CALM      29.94S
HOUGHTON LAKE  CLEAR     34  23  64 N6        29.90F WCI  29
MANISTEE       CLEAR     37  21  52 NE5       29.94R WCI  34
OSCODA         PTCLDY    34  25  68 NW5       29.88F WCI  30
PELLSTON       CLEAR     27  23  85 NW5       29.95S WCI  22
ROGERS CITY    CLEAR     32  27  83 W3        29.93S
TRAVERSE CITY  CLEAR     36  30  79 NW6       29.93F WCI  31
$$
MIZ007>008-015-260800-
EASTERN UPPER MICHIGAN

CITY           SKY/WX    TMP DP  RH WIND       PRES   REMARKS
KINROSS        CLEAR     30  28  93 N7        29.95S WCI  23
MACKINAC ISLAN CLEAR     34  27  76 N6        29.95R WCI  28
NEWBERRY       CLEAR     31  26  83 N6        29.97S WCI  25
S. S. MARIE    CLEAR     32  25  75 W5        29.95S WCI  27
$$
MIZ004>006-011>014-085-260800-
CENTRAL UPPER MICHIGAN

CITY           SKY/WX    TMP DP  RH WIND       PRES   REMARKS
MANISTIQUE     CLEAR     31  25  77 N8        29.97S WCI  24
ESCANABA       CLEAR     34  19  55 N5        29.99S WCI  30
MENOMINEE      CLEAR     32  19  59 N5        29.99F WCI  27
SAWYER-GWINN   CLEAR     31  17  56 N10       30.00R WCI  23
$$
MIZ001>003-009>011-084-260800-
WESTERN UPPER MICHIGAN

CITY           SKY/WX    TMP DP  RH WIND       PRES   REMARKS
IRON MOUNTAIN  CLEAR     30  17  58 CALM      29.99S
HOUGHTON       CLEAR     34  17  50 N10       30.03R WCI  26
COPPER HARBOR    N/A     35  22  58 CALM      30.04S
IRONWOOD       CLEAR     27  25  93 CALM      30.03S
$$

ABBREVIATIONS USED IN REMARKS
   TC - TEMPERATURE IN CELSIUS
  WCI - WIND CHILL INDEX
   HX - HEAT INDEX
  VSB - VISIBILITY



USA.gov is the U.S. government's official web portal to all federal, state and local government web resources and services.